Orient Glider Airport

Jump to: basic info | weather | comments

Related pages: nearby airports | nearby navaids | notams | map

Basic information (top)

Codes: FAOI
Location: lon -26.039400, lat 27.595600, elev 5,102 ft / 1,555 m msl
Status: small_airport

Weather (top)

Current conditions for Lanseria Airport 19nm (35km) ENE (rec'd 2014/07/30 17:00Z):

FALA 301700Z 30003KT 260V350 CAVOK 14/M01 Q1030 NOSIG

Airport forecast for Lanseria Airport 19nm (35km) ENE (rec'd 2014/07/29 00:00Z):

TAF FALA 292200Z 3000/3024 VRB03KT CAVOK PROB30 
      TEMPO 3001/3006 5000 BR BKN010 
      BECMG 3010/3012 35007KT SCT045 
      BECMG 3015/3017 CAVOK 
      BECMG 3016/3018 VRB03KT TX20/3012ZTN06/3004Z

Latest comments (top)

Runway Orientation and Airfield Frequency: Runway 36/18 (Main) Runway 11/29 Airfi ... [read]

More... (top)

See also NOTAMs and nearby airports and navaids, or visit the Orient Glider Airport page at the main OurAirports website..